Tracking 31027 objects as of 19-Jul-2025
HD Live streaming from Space Station
objects crossing your sky now

FENGYUN 1C DEB

Track FENGYUN 1C DEB now!
10-day predictions


NORAD ID: 32088
Int'l Code: 1999-025CQE
Perigee: 829.3 km
Apogee: 1,520.3 km
Inclination: 102.4 °
Period: 108.7 minutes
Semi major axis: 7545 km
RCS: 0.0006 m2 (small)
Launch date: May 10, 1999
Source: People's Republic of China (PRC)
Launch site: Taiyaun Space Center, China (TSC)

Note: This is SATELLITE DEBRIS
Your satellite tracking list
STARLINK-4010
Track 1 satellite(s)




NASA's NSSDC Master Catalog

Two Line Element Set (TLE):
1 32088U 99025CQE 25199.38794200  .00001557  00000-0  21483-2 0  9993
2 32088 102.4025  37.0007 0457818 313.7303  42.6740 13.24481348578930
Source of the keplerian elements: AFSPC